Location: Bun Machan
(52.1403°N, 7.3744°W)
Time: 08:33:34
(UTC+00:00)

Cosmos 1733 Rocket - Pass Details

Date: 14 July 2020
Orbit: 604 x 628 km, 82.5° (Epoch: 04 August)

Event Time Altitude Azimuth Distance (km) Brightness Sun altitude
Exits shadow 03:06:39 10° 190° (S) 1,983 5.1 -9.2°
Reaches altitude 10° 03:06:44 10° 190° (S) 1,949 5.1 -9.2°
Maximum altitude 03:11:03 87° 283° (WNW) 613 3.0 -8.8°
Drops below altitude 10° 03:15:24 10° 10° (N) 1,966 6.8 -8.4°
Sets 03:17:38 0° 11° (N) 2,876 7.8 -8.2°
